This demonstration page uses our WeatherBlox Daily Observations layout. Learn more.

Left ArrowRight Arrow

34.16533, -84.80231

Hourly Observations for March 18, 2017

Temp ( °F °C ) Dew Point ( °F °C ) Humidity (%) Winds ( mph kmh ) Pressure ( in mb ) Visibility ( mi km ) Precip ( " mm )
12:53 am 00:53 Cloudy 62 16.7 41 5 46 46 VRB 3 6 30.20 1023 10 16 0.00 0.00
1:53 am 01:53 Cloudy 58 14.4 44 6.7 60 60 Calm 30.19 1023 10 16 0.00 0.00
2:53 am 02:53 Cloudy 59 15 44 6.7 58 58 Calm 30.18 1022 10 16 0.00 0.00
3:53 am 03:53 Cloudy 61 16.1 44 6.7 54 54 VRB 5 7 30.17 1022 10 16 0.00 0.00
4:53 am 04:53 Cloudy 61 16.1 45 7.2 56 56 VRB 6 9 30.15 1021 10 16 0.00 0.00
5:53 am 05:53 Cloudy with Light Rain 55 12.8 50 10 83 83 Calm 30.18 1022 5 8 0.03 0.76
6:53 am 06:53 Cloudy with Rain 53 11.7 52 11.1 96 96 S 5 7 30.18 1022 3 5 0.12 3.05
7:53 am 07:53 Cloudy with Light Rain 54 12.2 52 11.1 93 93 VRB 3 6 30.18 1022 8 13 0.03 0.76
8:22 am 08:22 Cloudy 54 12.2 53 11.7 97 97 Calm 30.21 1023 9 14 0.01 0.25
8:53 am 08:53 Cloudy 55 12.8 53 11.7 93 93 VRB 5 7 30.18 1022 10 16 0.01 0.25
9:53 am 09:53 Cloudy 56 13.3 54 12.2 93 93 VRB 3 6 30.19 1022 10 16 0.01 0.25
10:17 am 10:17 Cloudy 56 13.3 54 12.2 93 93 undefined N/A 30.21 1023 10 16 0.00 0.00
10:53 am 10:53 Cloudy 58 14.4 55 12.8 90 90 VRB 6 9 30.18 1022 10 16 0.00 0.00
11:53 am 11:53 Cloudy 60 15.6 55 12.8 84 84 undefined N/A 30.18 1022 10 16 0.00 0.00
12:14 pm 12:14 Cloudy 62 16.7 55 12.8 78 78 VRB 6 9 30.18 1022 10 16 0.00 0.00
12:53 pm 12:53 Cloudy 64 17.8 56 13.3 75 75 VRB 6 9 30.16 1021 10 16 0.00 0.00
1:53 pm 13:53 Mostly Cloudy 66 18.9 54 12.2 65 65 VRB 5 7 30.15 1021 10 16 0.00 0.00
2:16 pm 14:16 Mostly Cloudy 68 20 54 12.2 61 61 VRB 3 6 30.12 1020 10 16 0.00 0.00
2:53 pm 14:53 Mostly Sunny 68 20 52 11.1 57 57 VRB 3 6 30.11 1020 10 16 0.00 0.00
3:53 pm 15:53 Partly Cloudy 68 20 52 11.1 57 57 Calm 30.09 1019 10 16 0.00 0.00
4:53 pm 16:53 Mostly Sunny 70 21.1 49 9.4 47 47 VRB 3 6 30.07 1018 10 16 0.00 0.00
5:53 pm 17:53 Partly Cloudy 69 20.6 44 6.7 41 41 VRB 5 7 30.06 1018 10 16 0.00 0.00
6:53 pm 18:53 Sunny 67 19.4 39 3.9 36 36 undefined N/A 30.08 1019 10 16 0.00 0.00
7:53 pm 19:53 Clear 64 17.8 41 5 43 43 Calm 30.09 1019 10 16 0.00 0.00
8:53 pm 20:53 Clear 60 15.6 42 5.6 52 52 Calm 30.09 1019 10 16 0.00 0.00
9:53 pm 21:53 Clear 57 13.9 41 5 55 55 Calm 30.11 1020 10 16 0.00 0.00
10:53 pm 22:53 Clear 54 12.2 35 1.7 49 49 undefined N/A 30.14 1021 10 16 0.00 0.00
11:53 pm 23:53 Clear 55 12.8 30 -1.1 38 38 N 9 15 30.16 1021 10 16 0.00 0.00

Powered by AerisWeather